Location: Newark
(25.0000°N, 73.5000°E)
Time: 00:50:44
(UTC+00:00)

ISS - Pass Details

Date: 20 June 2021
Orbit: 419 x 421 km, 51.6° (Epoch: 30 July)

Event Time Altitude Azimuth Distance (km) Brightness Sun altitude
Exits shadow 23:02:21 - 165° (SSE) 1,780 -0.8 -15.3°
Reaches altitude 10° 23:03:43 10° 147° (SSE) 1,487 -1.0 -15.1°
Maximum altitude 23:04:59 12° 124° (SE) 1,385 -0.9 -14.9°
Drops below altitude 10° 23:06:16 10° 102° (ESE) 1,489 -0.3 -14.6°
Sets 23:09:28 0° 68° (ENE) 2,355 1.8 -14.0°
